Weather in Angouleme

France     45°39′03″N   0°10′01″E
temp.,
°C
wind,
m/s
gust,
m/s
humid.,
%
clouds,
%
prec.,
mm/h
press.,
hPa
HPBL,
m
13 may, thu
thu1323:00+8wsw512933 0.1 1015504
02:00+9wsw51194100 0.4 1014716
05:00+8sw4129624 0.5 1014566
08:00+8ssw499585 0.9 1013370
11:00+13sw56725 0.3 10121230
14:00+16sw685575 0.4 10101916
17:00+12ssw5689100 1.9 1010610
20:00+12w47815 3.0 1009333
14 may, fri
fri1423:00+7wsw369515 0.0 1012110
02:00+7ssw369794 0.1 1012129
05:00+6sw359932 0.7 1012100
08:00+8wsw25941 0.7 1014172
11:00+13w576433 0.0 10151334
14:00+15w675399 0.1 10152083
17:00+15w6756100 0.0 10151955
20:00+12wsw4770100 0.0 1015600
15 may, sat
sat1523:00+10sw3988100 0.0 1015383
02:00+9sse4993100 0.8 1012499
05:00+9s61397100 3.7 1010641
08:00+10ssw61398100 5.8 1009681
11:00+11wsw2795100 2.6 1010392
14:00+11wsw4897100 4.3 1011552
17:00+12wsw4996100 1.8 1012610
20:00+12sw4894100 2.1 1012613
16 may, sun
sun1623:00+11ssw41098100 0.3 1012457
02:00+12ssw51198100 2.6 1011434
05:00+12sw41099100 1.8 1010459
08:00+12wsw51097100 4.8 1010610
11:00+13wsw5990100 0.4 1011769
14:00+15wsw8118697 1.8 10111126
17:00+16wsw71475100 1.6 10111718
20:00+13wsw711775 1.8 10121198
17 may, mon
mon1723:00+9sw5119312 0.1 1014471
02:00+9sw5129612 0.7 1015526
05:00+8sw5129624 0.5 1015522
08:00+9sw5129520 1.1 1016800
11:00+13wsw8118224 1.1 10161240
14:00+15wsw91267100 2.2 10171728
17:00+15wsw8126898 0.7 10171668
20:00+12wsw71179100 1.1 10181028